Location: ????????
(60.4333°N, 46.4710°E)
Time: 19:53:00
(UTC+00:00)

SKYMED 2 - Pass Details

Date: 25 November 2020
Orbit: 621 x 623 km, 97.9° (Epoch: 17 January)

Event Time Altitude Azimuth Distance (km) Brightness Sun altitude
Exits shadow 14:45:17 38° 104° (ESE) 965 4.1 -18.6°
Drops below altitude 10° 14:49:09 10° 166° (SSE) 1,996 6.1 -19.0°
Sets 14:51:27 0° 174° (S) 2,898 7.0 -19.3°
